IMR1101 OIIE-OAKB

Flight info

Callsign IMR1101
Flight time N/A
Altitude 31000
Route DHN B411 LOXED N636 PAMTU V390 SAKUX V338 KULTA
Aircraft A346/H-SDE2E3FGHIJ3J4J5M1RWXY/LB1D1

Departure

Time 2026-05-09 12:46
Airport Imam Khomeini International Airport (OIIE)

Arrival

Time N/A
Airport Kabul International Airport (OAKB)
Time Latitude Longitude Altitude Speed Heading
2026-05-09 12:16 35.40977 51.15762 3273 ft 0 kts 199°
2026-05-09 12:32 35.40975 51.15762 3277 ft 0 kts 199°
2026-05-09 12:33 35.40974 51.15762 3277 ft 0 kts 199°
2026-05-09 12:33 35.40973 51.15761 3277 ft 0 kts 199°
2026-05-09 12:33 35.40972 51.15761 3277 ft 0 kts 199°
2026-05-09 12:35 35.40973 51.15761 3277 ft 0 kts 199°
2026-05-09 12:35 35.40987 51.15767 3272 ft 0 kts 199°
2026-05-09 12:35 35.40992 51.15769 3272 ft 0 kts 199°
2026-05-09 12:35 35.40990 51.15768 3272 ft 0 kts 199°
2026-05-09 12:36 35.40989 51.15768 3272 ft 0 kts 199°
2026-05-09 12:36 35.40988 51.15767 3272 ft 0 kts 199°
2026-05-09 12:37 35.41062 51.15727 3279 ft 0 kts 109°
2026-05-09 12:42 35.41060 51.15737 3275 ft 4 kts 110°
2026-05-09 12:42 35.41053 51.15782 3276 ft 6 kts 83°
2026-05-09 12:42 35.41064 51.15828 3276 ft 4 kts 47°
2026-05-09 12:42 35.41100 51.15844 3276 ft 7 kts 16°
2026-05-09 12:43 35.41134 51.15856 3274 ft 8 kts 17°
2026-05-09 12:43 35.41183 51.15925 3276 ft 11 kts 69°
2026-05-09 12:43 35.41178 51.16006 3274 ft 11 kts 119°
2026-05-09 12:43 35.41151 51.16109 3271 ft 14 kts 105°
2026-05-09 12:44 35.41118 51.16231 3272 ft 17 kts 108°
2026-05-09 12:44 35.41096 51.16329 3269 ft 5 kts 66°
2026-05-09 12:44 35.41135 51.16360 3269 ft 8 kts 22°
2026-05-09 12:44 35.41195 51.16388 3270 ft 11 kts 20°
2026-05-09 12:45 35.41272 51.16422 3270 ft 12 kts 18°
2026-05-09 12:45 35.41326 51.16442 3270 ft 12 kts 13°
2026-05-09 12:45 35.41363 51.16410 3271 ft 6 kts 284°
2026-05-09 12:45 35.41381 51.16350 3272 ft 15 kts 289°
2026-05-09 12:46 35.41476 51.16011 3278 ft 76 kts 289°
2026-05-09 12:46 35.41733 51.15090 3295 ft 149 kts 289°
2026-05-09 12:46 35.42114 51.13667 3526 ft 186 kts 293°
2026-05-09 12:46 35.42484 51.12208 4613 ft 182 kts 279°
2026-05-09 12:47 35.42230 51.10673 5369 ft 195 kts 243°
2026-05-09 12:47 35.41204 51.09458 5875 ft 221 kts 215°
2026-05-09 12:47 35.39650 51.08932 6314 ft 249 kts 181°
2026-05-09 12:47 35.37963 51.09673 6723 ft 272 kts 141°
2026-05-09 12:48 35.36840 51.11595 7192 ft 289 kts 105°
2026-05-09 12:48 35.36713 51.14073 7717 ft 297 kts 76°
2026-05-09 12:48 35.37233 51.16537 8490 ft 300 kts 70°
2026-05-09 12:48 35.37898 51.18978 9346 ft 304 kts 68°
2026-05-09 12:49 35.38609 51.21440 10165 ft 309 kts 69°
2026-05-09 12:49 35.38858 51.22286 10416 ft 312 kts 68°
2026-05-09 12:49 35.39636 51.24851 10965 ft 329 kts 68°
2026-05-09 12:49 35.40483 51.27551 11445 ft 348 kts 68°
2026-05-09 12:50 35.41704 51.31343 12045 ft 373 kts 68°
2026-05-09 12:50 35.42749 51.35547 12553 ft 399 kts 85°
2026-05-09 12:50 35.42761 51.37833 12796 ft 409 kts 97°
2026-05-09 12:50 35.42157 51.42521 13748 ft 420 kts 104°
2026-05-09 12:51 35.41605 51.46082 14490 ft 425 kts 104°
2026-05-09 12:51 35.41070 51.49677 15239 ft 431 kts 103°
2026-05-09 12:51 35.40562 51.53330 15968 ft 437 kts 102°
2026-05-09 12:51 35.40073 51.57044 16678 ft 444 kts 102°
2026-05-09 12:52 35.39599 51.60758 17400 ft 449 kts 101°
2026-05-09 12:52 35.39277 51.63327 17918 ft 452 kts 101°
2026-05-09 12:52 35.38801 51.67159 18582 ft 458 kts 101°
2026-05-09 12:52 35.38638 51.68472 18790 ft 459 kts 101°
2026-05-09 12:53 35.37676 51.76245 20108 ft 467 kts 101°
2026-05-09 12:53 35.37345 51.78919 20557 ft 470 kts 101°
2026-05-09 12:53 35.36685 51.84239 21482 ft 474 kts 101°
2026-05-09 12:53 35.36192 51.88204 22181 ft 477 kts 101°
2026-05-09 12:54 35.35688 51.92240 22843 ft 481 kts 101°
2026-05-09 12:54 35.35177 51.96314 23451 ft 485 kts 101°
2026-05-09 12:54 35.34663 52.00404 23975 ft 489 kts 101°
2026-05-09 12:54 35.34138 52.04551 24487 ft 493 kts 101°
2026-05-09 12:55 35.33614 52.08720 25032 ft 496 kts 101°
2026-05-09 12:55 35.33083 52.12918 25543 ft 500 kts 101°
2026-05-09 12:55 35.32547 52.17134 26174 ft 500 kts 101°
2026-05-09 12:55 35.32185 52.19968 26707 ft 498 kts 101°
2026-05-09 12:56 35.31652 52.24151 27492 ft 495 kts 101°
2026-05-09 12:56 35.30943 52.29677 28415 ft 495 kts 102°
2026-05-09 12:56 35.30583 52.32488 28850 ft 495 kts 102°
2026-05-09 12:56 35.29871 52.38011 29725 ft 496 kts 102°
2026-05-09 12:57 35.29510 52.40790 30107 ft 497 kts 102°
2026-05-09 12:57 35.28966 52.44974 30534 ft 499 kts 102°
2026-05-09 12:57 35.28419 52.49188 30895 ft 502 kts 102°
2026-05-09 12:58 35.27319 52.57657 30945 ft 503 kts 102°
2026-05-09 12:58 35.26218 52.67608 30949 ft 506 kts 97°
2026-05-09 12:59 35.26184 52.74781 30951 ft 508 kts 89°
2026-05-09 12:59 35.27113 52.83367 30937 ft 508 kts 81°
2026-05-09 13:00 35.28475 52.91862 30931 ft 508 kts 80°
2026-05-09 13:00 35.29834 53.00352 30927 ft 508 kts 81°
2026-05-09 13:01 35.31159 53.08814 30929 ft 509 kts 81°
2026-05-09 13:01 35.32693 53.18784 30914 ft 509 kts 81°
2026-05-09 13:02 35.33780 53.25880 30907 ft 509 kts 82°
2026-05-09 13:02 35.35089 53.34434 30907 ft 511 kts 82°
2026-05-09 13:03 35.36386 53.43004 30903 ft 511 kts 82°
2026-05-09 13:03 35.37678 53.51577 30903 ft 511 kts 82°
2026-05-09 13:04 35.39182 53.61597 30900 ft 511 kts 82°
2026-05-09 13:04 35.40030 53.67273 30901 ft 511 kts 82°
2026-05-09 13:05 35.41528 53.77306 30906 ft 511 kts 83°
2026-05-09 13:05 35.42797 53.85894 30914 ft 511 kts 83°
2026-05-09 13:06 35.44057 53.94484 30917 ft 511 kts 83°
2026-05-09 13:06 35.45318 54.03067 30892 ft 511 kts 84°
2026-05-09 13:07 35.46772 54.13051 30911 ft 511 kts 84°
2026-05-09 13:07 35.47812 54.20254 30912 ft 511 kts 84°
2026-05-09 13:08 35.49050 54.28796 30913 ft 512 kts 85°
2026-05-09 13:08 35.50282 54.37428 30915 ft 513 kts 85°
2026-05-09 13:09 35.51508 54.46065 30904 ft 513 kts 85°
2026-05-09 13:09 35.52745 54.54719 30897 ft 515 kts 87°
2026-05-09 13:10 35.53964 54.63389 30897 ft 515 kts 87°
2026-05-09 13:10 35.55187 54.72072 30891 ft 515 kts 87°
2026-05-09 13:11 35.56414 54.80767 30874 ft 517 kts 87°
2026-05-09 13:11 35.57628 54.89477 30869 ft 516 kts 88°
2026-05-09 13:12 35.59029 54.99601 30865 ft 516 kts 88°
2026-05-09 13:12 35.60039 55.06887 30863 ft 516 kts 88°
2026-05-09 13:13 35.61244 55.15595 30861 ft 515 kts 88°
2026-05-09 13:13 35.62430 55.24239 30870 ft 515 kts 88°
2026-05-09 13:14 35.63622 55.32916 30869 ft 512 kts 88°
2026-05-09 13:16 35.68269 55.67453 30911 ft 510 kts 88°
2026-05-09 13:16 35.69415 55.76082 30915 ft 510 kts 88°
2026-05-09 13:17 35.70550 55.84717 30918 ft 511 kts 88°
2026-05-09 13:17 35.71687 55.93358 30931 ft 511 kts 88°
2026-05-09 13:18 35.72816 56.01991 30940 ft 511 kts 88°
2026-05-09 13:18 35.73938 56.10637 30940 ft 511 kts 88°
2026-05-09 13:19 35.75053 56.19281 30925 ft 510 kts 88°
2026-05-09 13:19 35.76155 56.27869 30930 ft 510 kts 88°
2026-05-09 13:20 35.77251 56.36502 30926 ft 508 kts 88°
2026-05-09 13:20 35.78345 56.45110 30942 ft 508 kts 88°
2026-05-09 13:21 35.79439 56.53727 30944 ft 508 kts 88°
2026-05-09 13:21 35.80522 56.62342 30935 ft 508 kts 88°
2026-05-09 13:22 35.81600 56.70950 30933 ft 508 kts 88°
2026-05-09 13:22 35.82672 56.79561 30934 ft 508 kts 88°
2026-05-09 13:23 35.85325 57.01119 30923 ft 509 kts 88°
2026-05-09 13:24 35.86201 57.08300 30927 ft 508 kts 88°
2026-05-09 13:24 35.87424 57.18420 30924 ft 512 kts 88°
2026-05-09 13:25 35.88470 57.27110 30925 ft 511 kts 88°
2026-05-09 13:26 35.90030 57.40186 30950 ft 515 kts 88°
2026-05-09 13:26 35.91067 57.48982 30982 ft 518 kts 88°
2026-05-09 13:27 35.92112 57.57800 30994 ft 519 kts 88°
2026-05-09 13:27 35.93151 57.66626 30975 ft 519 kts 87°
2026-05-09 13:28 35.94181 57.75477 30991 ft 521 kts 87°
2026-05-09 13:28 35.95208 57.84318 30983 ft 520 kts 88°
2026-05-09 13:29 35.96056 57.91674 30966 ft 520 kts 88°
2026-05-09 13:29 35.96729 57.97543 30948 ft 520 kts 88°
2026-05-09 13:30 35.95259 58.22165 30945 ft 493 kts 116°
2026-05-09 13:31 35.93855 58.27532 30961 ft 497 kts 116°
2026-05-09 13:31 35.91727 58.35662 30967 ft 497 kts 116°
2026-05-09 13:32 35.89623 58.43807 30982 ft 497 kts 116°
2026-05-09 13:32 35.86476 58.56018 30988 ft 497 kts 115°
2026-05-09 13:33 35.84378 58.64153 30998 ft 497 kts 115°
2026-05-09 13:33 35.82631 58.70909 31011 ft 497 kts 115°
2026-05-09 13:34 35.80164 58.80424 31013 ft 498 kts 115°
2026-05-09 13:34 35.78048 58.88553 31027 ft 498 kts 115°
2026-05-09 13:35 35.75926 58.96678 31031 ft 497 kts 116°
2026-05-09 13:35 35.73799 59.04794 31027 ft 498 kts 115°
2026-05-09 13:36 35.71675 59.12869 31040 ft 499 kts 115°
2026-05-09 13:36 35.69530 59.21011 31044 ft 499 kts 115°
2026-05-09 13:37 35.67730 59.27828 31063 ft 499 kts 115°
2026-05-09 13:37 35.65940 59.34575 31045 ft 499 kts 115°
2026-05-09 13:38 35.63055 59.45422 31070 ft 502 kts 115°
2026-05-09 13:38 35.60880 59.53581 31075 ft 501 kts 115°
2026-05-09 13:39 35.58700 59.61724 31063 ft 501 kts 115°
2026-05-09 13:39 35.56516 59.69849 31072 ft 500 kts 115°
2026-05-09 13:40 35.54330 59.77970 31086 ft 500 kts 115°
2026-05-09 13:40 35.52135 59.86102 31083 ft 502 kts 115°
2026-05-09 13:41 35.50296 59.92879 31076 ft 501 kts 115°
2026-05-09 13:41 35.47720 60.02366 31080 ft 501 kts 115°
2026-05-09 13:42 35.45885 60.09103 31088 ft 500 kts 115°
2026-05-09 13:42 35.43671 60.17207 31083 ft 500 kts 115°
2026-05-09 13:43 35.41444 60.25328 31077 ft 503 kts 115°
2026-05-09 13:43 35.38830 60.34834 31069 ft 503 kts 115°
2026-05-09 13:44 35.36588 60.42961 31062 ft 502 kts 115°
2026-05-09 13:44 35.34717 60.49723 31048 ft 503 kts 115°
2026-05-09 13:45 35.32465 60.57842 31043 ft 503 kts 115°
2026-05-09 13:45 35.30209 60.65954 31030 ft 503 kts 115°
2026-05-09 13:46 35.27571 60.75401 31018 ft 504 kts 116°
2026-05-09 13:46 35.25663 60.82219 31012 ft 505 kts 116°
2026-05-09 13:47 35.23392 60.90304 31013 ft 505 kts 116°
2026-05-09 13:47 35.21100 60.98441 31002 ft 505 kts 116°
2026-05-09 13:48 35.18742 61.06522 30981 ft 501 kts 120°
2026-05-09 13:48 35.15454 61.13920 30987 ft 488 kts 133°
2026-05-09 13:49 35.11130 61.20159 30995 ft 474 kts 144°
2026-05-09 13:49 35.06308 61.25660 30996 ft 480 kts 146°
2026-05-09 13:50 35.01392 61.31218 30980 ft 482 kts 146°
2026-05-09 13:50 34.95659 61.37736 30977 ft 482 kts 145°
2026-05-09 13:51 34.91590 61.42372 30970 ft 482 kts 145°
2026-05-09 13:51 34.86688 61.47953 30948 ft 482 kts 145°
2026-05-09 13:52 34.81786 61.53524 30950 ft 481 kts 145°
2026-05-09 13:52 34.76883 61.59086 30942 ft 481 kts 145°
2026-05-09 13:53 34.71976 61.64642 30942 ft 481 kts 145°
2026-05-09 13:53 34.67064 61.70195 30929 ft 483 kts 146°
2026-05-09 13:54 34.62141 61.75749 30915 ft 483 kts 146°
2026-05-09 13:54 34.57216 61.81297 30917 ft 483 kts 146°
2026-05-09 13:55 34.52305 61.86864 30903 ft 483 kts 145°
2026-05-09 13:55 34.47404 61.92419 30877 ft 486 kts 145°
2026-05-09 13:56 34.42461 61.98014 30885 ft 487 kts 145°
2026-05-09 13:56 34.37511 62.03606 30872 ft 487 kts 145°
2026-05-09 13:57 34.32558 62.09186 30843 ft 487 kts 145°
2026-05-09 13:57 34.27593 62.14792 30856 ft 489 kts 143°
2026-05-09 13:58 34.26076 62.16835 30840 ft 498 kts 136°
2026-05-09 13:58 34.22465 62.25833 30847 ft 525 kts 108°
2026-05-09 13:58 34.21966 62.30241 30852 ft 534 kts 96°
2026-05-09 13:59 34.22675 62.39252 30864 ft 540 kts 84°
2026-05-09 13:59 34.23796 62.48129 30866 ft 529 kts 84°
2026-05-09 14:00 34.24649 62.55457 30875 ft 528 kts 85°
2026-05-09 14:00 34.25768 62.65743 30892 ft 527 kts 85°
2026-05-09 14:01 34.26699 62.74488 30885 ft 527 kts 85°
2026-05-09 14:01 34.27643 62.83347 30900 ft 527 kts 85°
2026-05-09 14:02 34.28647 62.92054 30918 ft 526 kts 84°
2026-05-09 14:02 34.29675 63.00809 30917 ft 525 kts 84°
2026-05-09 14:03 34.30691 63.09574 30914 ft 525 kts 84°
2026-05-09 14:03 34.31693 63.18341 30933 ft 525 kts 84°
2026-05-09 14:04 34.32691 63.27126 30951 ft 526 kts 84°
2026-05-09 14:04 34.33675 63.35834 30951 ft 526 kts 84°
2026-05-09 14:05 34.34665 63.44669 30951 ft 525 kts 84°
2026-05-09 14:05 34.35637 63.53434 30977 ft 524 kts 84°
2026-05-09 14:06 34.36603 63.62140 30990 ft 525 kts 84°
2026-05-09 14:06 34.37566 63.70899 30990 ft 524 kts 84°
2026-05-09 14:07 34.38523 63.79663 31003 ft 524 kts 84°
2026-05-09 14:07 34.39473 63.88417 30994 ft 523 kts 84°
2026-05-09 14:08 34.40418 63.97177 30988 ft 523 kts 84°
2026-05-09 14:08 34.41357 64.05925 30993 ft 523 kts 84°
2026-05-09 14:09 34.42280 64.14647 31001 ft 521 kts 84°
2026-05-09 14:09 34.43200 64.23369 31000 ft 521 kts 84°
2026-05-09 14:10 34.44569 64.36459 31003 ft 521 kts 84°
2026-05-09 14:11 34.45468 64.45157 31005 ft 518 kts 84°
2026-05-09 14:11 34.46362 64.53835 30998 ft 518 kts 84°
2026-05-09 14:12 34.47246 64.62497 30985 ft 518 kts 84°
2026-05-09 14:12 34.48126 64.71183 30993 ft 519 kts 84°
2026-05-09 14:13 34.49002 64.79875 30997 ft 519 kts 84°
2026-05-09 14:15 34.50710 65.14639 31010 ft 515 kts 90°
2026-05-09 14:15 34.50935 65.23326 31004 ft 515 kts 90°
2026-05-09 14:16 34.51157 65.32013 31005 ft 514 kts 89°
2026-05-09 14:16 34.51373 65.40703 31025 ft 514 kts 89°
2026-05-09 14:17 34.51586 65.49382 31035 ft 514 kts 89°
2026-05-09 14:17 34.51792 65.58066 31038 ft 514 kts 89°
2026-05-09 14:18 34.51955 65.65290 31048 ft 513 kts 89°
2026-05-09 14:18 34.52148 65.73940 31040 ft 513 kts 89°
2026-05-09 14:19 34.52337 65.82597 31054 ft 513 kts 89°
2026-05-09 14:19 34.52550 65.92716 31052 ft 513 kts 89°
2026-05-09 14:20 34.52718 66.01350 31057 ft 512 kts 89°
2026-05-09 14:20 34.52888 66.10006 31064 ft 512 kts 89°
2026-05-09 14:21 34.53131 66.22967 31061 ft 512 kts 89°
2026-05-09 14:21 34.53282 66.31602 31070 ft 510 kts 89°
2026-05-09 14:22 34.53428 66.40214 31069 ft 510 kts 89°
2026-05-09 14:22 34.53568 66.48766 31069 ft 509 kts 89°
2026-05-09 14:23 34.53701 66.57376 31077 ft 510 kts 89°
2026-05-09 14:23 34.53806 66.64566 31081 ft 508 kts 89°
2026-05-09 14:24 34.53948 66.74541 31069 ft 507 kts 89°
2026-05-09 14:24 34.54006 66.78813 31067 ft 507 kts 89°
2026-05-09 14:25 34.54025 66.80265 31064 ft 507 kts 89°
2026-05-09 14:25 34.54134 66.88771 31065 ft 507 kts 89°